Location: NJAA Observatory
(40.6819°N, 74.8979°W)
Time: 18:11:14
(UTC-04:00)

Iridium 84 - Visible Passes

Search period start: 22 May 2015 00:00
Search period end: 01 June 2015 00:00
Orbit: 776 x 779 km, 86.4° (Epoch: 22 May)

Date Brightness Start Highest point End Pass type
(mag) Time Alt. Az. Time Alt. Az. Time Alt. Az.
22 May 7.2 04:53:26 10° SSE 04:58:09 37° E 05:02:56 10° NNE visible
23 May 8.1 04:21:09 10° SE 04:24:49 21° E 04:28:40 10° NE visible
24 May 8.6 03:50:28 10° E 03:51:34 11° ENE 03:53:01 10° ENE visible
25 May 6.4 04:53:08 10° SSE 04:58:10 54° E 05:03:16 10° NNE visible
26 May 7.5 04:20:24 10° SE 04:24:47 29° E 04:29:17 10° NNE visible
27 May 8.2 03:48:30 10° ESE 03:51:29 16° E 03:54:43 10° NE visible
28 May 5.7 04:53:02 10° S 04:58:14 79° E 05:03:28 10° N visible
29 May 6.8 04:19:57 10° SSE 04:24:47 42° E 04:29:42 10° NNE visible
30 May 7.7 03:47:29 10° SE 03:51:26 23° E 03:55:33 10° NNE visible
31 May 8.3 03:16:11 10° E 03:18:11 13° ENE 03:20:28 10° NE visible
31 May 5.5 04:53:08 10° S 04:58:20 73° W 05:03:34 10° N visible
